STARLINK-11432, 62882

Orbit data source: Space-Track

STARLINK-11432, 62882 is a payload satellite owned by SpaceX/Seattle (US) in LEO that was launched on Tue, 04 Feb 2025 UTC via an FALCON 9 launch vehicle from the Air Force Eastern Test Range (AFETR). Payload-class satellites include a variety of spacecraft equipped with specific instruments for various scientific and technological missions. These include communications satellites like Starlink; space stations such as the ISS; scientific satellites like the Hubble; Earth observation satellites from companies like Planet Labs, Umbra, and HawkEye 360; GPS; miniature CubeSats for education and research; and military/defense satellites.

Loading next visibility...
Identifier
62882, 2025-024D
Orbit
LEO
Country
Flag of USUS
Related business
Manufacturer
SpaceX/Seattle
Mission
Operational Commercial Communications
Bus & Motor
STARLINK V2MD, Unknown motor
Mass
960 kg wet, ~910 kg dry
Launch date (UTC)
2025-02-04 (10 months ago)
Launch vehicle
FALCON 9
Launch site
Air Force Eastern Test Range (AFETR)
Object type
Payload
Rocket body
Debris
Shape & HBR
Box + 2 Pan, 18.1 m
Radar Cross Section
36.964 m², Large (>1 m²)

Expand to show TLE details & history
Last TLE update: 18 hours ago

TLE from 18 hours ago
0 STARLINK-11432
1 62882U 25024D   25348.99372501  .00205548  00000-0  15563-2 0  9993
2 62882  42.9989 332.1990 0001626 237.0349 123.0362 15.70989552 50147
Epoch: 2025-12-14T23:50Z
TLE epoch observation values (Epoch: 2025-12-14T23:50:57.840Z)
Latitude
-0.00007°
Longitude
-109.44074°
Altitude
356.436 km
Speed
7.697 km/s
True Right ascension
22h 08m 47s
True Declination
0° 00' 00"
Sunlit
Object was in daylight at epoch
Visualization orbit readout
Latitude
Unknown
Longitude
Unknown
Altitude
Unknown
Speed
Unknown
Apparent Right ascension
Unknown
Apparent Declination
Unknown
Sunlit
N/A
Visualization observer readout
Local Sidereal Time
16:37:35
Azimuth
Unknown
Elevation
Unknown
Doppler factor
Unknown
Orbital elements
Apogee altitude
359.145 km
Perigee altitude
356.954 km
Semi-major axis
6,736.187 km
Eccentricity
0.00016
Inclination
42.9989°
RAAN
332.199°
Arg. of periapsis
237.0349°
True anomaly
123.05182°
Mean anomaly
123.0362°
Eccentric anomaly
123.04401°
Mean motion
3.92574 °/min
Orbital period
91.7 mins
BSTAR
0.0015563
Loading maneuver chart data...
Computing Atmospheric mass density...
Loading historical data...
Loading historical data...
Loading historical data...
Loading historical data...
Loading historical data...
Loading historical data...
Loading historical data...

Documentation

Showing up to 5 results
|